Flag for Finland Weather past 2 weeks in Tampere, Finland

Now
82 °F

Sunny.


Feels Like: 82 °F
Forecast: 62 / 85 °F
Wind: 3 mph from North

Location: Tampere / Pirkkala

Current Time: Jul 24, 2014 at 11:59:24 AM

Latest Report: Jul 24, 2014 at 11:20 AM


Visibility: 10 mi

Pressure: 30.18 "Hg

Humidity: 45%

Dew point: 59 °F

Location of TampereLocation

Historic Weather in Tampere — Graph

°F

Tampere temperature yesterday

Maximum temperature yesterday: 84 °F (at 4:20 PM)
Minimum temperature yesterday: 55 °F (at 4:50 AM)
Average temperature yesterday: 72 °F

Past Weeks' High & Low Weather Summary

 TemperatureHumidityPressure
High84 °F (Jul 23, 4:20 PM)100% (Jul 15, 4:50 AM)30.30 "Hg (Jul 15, 4:50 AM)
Low46 °F (Jul 11, 3:20 AM)28% (Jul 9, 5:20 PM)29.86 "Hg (Jul 13, 11:20 PM)
Average67 °F72%30.09 "Hg
* Reported Jul 9 10:50 AM — Jul 24 10:50 AM, Tampere, Weather by CustomWeather, © 2014

Note: Actual official high and low records may vary slightly from our data, if they occured in-between our weather recording intervals... More about our weather records

Advertising

Tampere weather history for previous 24 hours

 ConditionsComfort  
Time TempWeatherWind HumidityBarometerVisibility
10:50 AM
Jul 24
82 °FSunny.2 mph48%30.18 "Hg10 mi
10:20 AM81 °FSunny.2 mph51%30.18 "Hg10 mi
9:50 AM79 °FSunny.1 mph58%30.18 "Hg10 mi
9:20 AM75 °FSunny.2 mph65%30.18 "Hg10 mi
8:50 AM73 °FSunny.2 mph74%30.18 "Hg10 mi
8:20 AM70 °FSunny.5 mph83%30.18 "Hg10 mi
7:50 AM70 °FSunny.2 mph83%30.18 "Hg10 mi
7:20 AM70 °FSunny.No wind78%30.18 "Hg10 mi
6:50 AM66 °FMild.2 mph88%30.18 "HgN/A
6:20 AM63 °FSunny.1 mph94%30.18 "Hg10 mi
5:50 AM61 °FSunny.2 mph88%30.18 "Hg10 mi
5:20 AM59 °FClear.1 mph94%30.18 "Hg10 mi
4:50 AM61 °FClear.No wind88%30.18 "Hg10 mi
4:20 AM61 °FClear.2 mph88%30.18 "Hg10 mi
3:50 AM63 °FClear.1 mph88%30.18 "Hg10 mi
3:20 AM63 °FClear.3 mph88%30.18 "Hg10 mi
2:50 AM63 °FClear.1 mph83%30.21 "Hg10 mi
2:20 AM63 °FClear.3 mph83%30.21 "Hg10 mi
1:50 AM63 °FClear.2 mph83%30.21 "Hg10 mi
1:20 AM64 °FPassing clouds.3 mph78%30.21 "HgN/A
12:50 AM64 °FClear.2 mph78%30.21 "Hg10 mi
12:20 AM70 °FClear.2 mph64%30.21 "Hg10 mi
11:50 PM
Jul 23
70 °FClear.7 mph64%30.21 "Hg10 mi
11:20 PM70 °FSunny.2 mph64%30.21 "Hg10 mi
10:50 PM73 °FSunny.5 mph57%30.21 "Hg10 mi
10:20 PM75 °FSunny.5 mph54%30.18 "Hg10 mi
9:50 PM75 °FSunny.6 mph54%30.18 "Hg10 mi
9:20 PM77 °FSunny.7 mph51%30.18 "Hg10 mi
8:50 PM79 °FSunny.7 mph48%30.18 "Hg10 mi
8:20 PM81 °FSunny.8 mph42%30.18 "Hg10 mi
7:50 PM82 °FSunny.8 mph40%30.18 "Hg10 mi
7:20 PM82 °FPassing clouds.8 mph40%30.18 "HgN/A
6:50 PM84 °FPassing clouds.8 mph37%30.18 "HgN/A
6:20 PM84 °FSunny.7 mph35%30.18 "Hg10 mi
5:50 PM84 °FPassing clouds.8 mph37%30.21 "HgN/A
5:20 PM84 °FPassing clouds.8 mph33%30.21 "HgN/A
4:50 PM84 °FPassing clouds.7 mph33%30.21 "HgN/A
4:20 PM84 °FPassing clouds.7 mph35%30.21 "HgN/A
11:50 AM79 °FWarm.6 mph42%30.27 "HgN/A
Weather by CustomWeather, © 2014

See weather overviewHow to use our weather pages